Regional Weather Roundup
Issued by NWS

Home | Current Version | Previous Version | Text Only | Print | Product List | Glossary Off
Versions: 1 2 3 4 5 6 7 8 9 10 11 12 13 14 15 16 17 18 19 20 21 22 23 24 25 26 27 28 29 30 31 32 33 34 35 36 37 38 39 40 41 42 43 44 45 46 47 48 49 50

000
ASUS43 KFSD 091210
RWRSD

WEATHER ROUNDUP FOR SOUTH DAKOTA
NATIONAL WEATHER SERVICE SIOUX FALLS SD
600 AM CST FRI DEC 09 2016

NOTE: "FAIR" INDICATES FEW OR NO CLOUDS BELOW 12,000 FEET WITH NO
SIGNIFICANT WEATHER AND/OR OBSTRUCTIONS TO VISIBILITY.


SDZ001>005-009-010-012>017-091300-
NORTHWEST AND NORTH CENTRAL SOUTH DAKOTA

CITY           SKY/WX    TMP DP  RH WIND       PRES   REMARKS
BUFFALO          N/A     -7 -12  79 E6        30.28R WCI -20
FAITH            N/A     -2  -7  79 NE8       30.40F WCI -17
MOBRIDGE       CLOUDY    -3  -8  79 N7        30.50F WCI -16
$$

SDZ012>016-024>037-041>051-057-063-072>074-091300-
SOUTHWEST AND SOUTH CENTRAL SOUTH DAKOTA

CITY           SKY/WX    TMP DP  RH WIND       PRES   REMARKS
RAPID CTY ARPT CLOUDY    -1  -5  82 N10       30.32R WCI -17
PIERRE         CLOUDY     2  -2  83 E6        30.51F WCI  -9
CUSTER         LGT SNOW   4  -2  76 NE5       30.03R WCI  -5
ELLSWORTH AFB  MIX PCPN  -2  -6  82 N9        30.30R WCI -18
PHILIP         CLOUDY     0  -2  91 E10       30.43F WCI -16
PINE RIDGE     FLURRIES   9   4  80 NE8       30.21F WCI  -3
SPEARFISH      CLOUDY    -6 -11  77 CALM      30.24F
WINNER         FAIR       3  -1  83 E7        30.47F WCI  -9
$$

SDZ004>011-016>023-039-040-091300-
NORTHEAST SOUTH DAKOTA

CITY           SKY/WX    TMP DP  RH WIND       PRES   REMARKS
ABERDEEN       CLOUDY    -4  -9  79 W6        30.58F WCI -16
WATERTOWN      CLOUDY    -4  -8  83 NW5       30.50S WCI -15
BROOKINGS      CLOUDY    -4  -7  87 W6        30.52S WCI -16
SISSETON         N/A     -2  -8  76 NW8       30.56R WCI -17
$$

SDZ017-020-022-023-036>040-048>070-091300-
SOUTHEAST SOUTH DAKOTA

CITY           SKY/WX    TMP DP  RH WIND       PRES   REMARKS
SIOUX FALLS    PTCLDY    -1  -4  87 NW3       30.55F
HURON          CLOUDY    -4  -7  87 NW5       30.58S WCI -15
CHAMBERLAIN    CLOUDY     4   0  82 E3        30.53S
MITCHELL       CLOUDY     0  -4  83 NW5       30.60R WCI -10
YANKTON        PTCLDY     1  -4  78 NW3       30.57S
$$

ABBREVIATIONS USED IN REMARKS
   TC - TEMPERATURE IN CELSIUS
  WCI - WIND CHILL INDEX
   HX - HEAT INDEX
  VSB - VISIBILITY





USA.gov is the U.S. government's official web portal to all federal, state and local government web resources and services.